Tracking 28518 objects as of 1-Mar-2024
HD Live streaming from Space Station
objects crossing your sky now

SL-12 R/B(AUX MOTOR)

Track SL-12 R/B(AUX MOTOR) now!
10-day predictions


NORAD ID: 23402
Int'l Code: 1994-076G
Perigee: 442.6 km
Apogee: 18,922.3 km
Inclination: 65.0 °
Period: 337.4 minutes
Semi major axis: 16053 km
RCS: 0.7371 m2 (medium)
Launch date: November 20, 1994
Source: Commonwealth of Independent States (former USSR) (CIS)
Launch site: TYURATAM MISSILE AND SPACE COMPLEX (TTMTR)

Note: This is a ROCKET BODY
Your satellite tracking list
Your tracking list is empty




NASA's NSSDC Master Catalog

Two Line Element Set (TLE):
1 23402U 94076G   24060.81456200  .00001051  00000-0  13848-2 0  9998
2 23402  65.0011 244.1851 5755705 161.7600 233.1532  4.26825910454162
Source of the keplerian elements: AFSPC